Hopewell, New Jersey, United States (08525)
Lat: 40.39N, Lon: 74.76W
Wx Zone: NJZ015
Local Info
Past Weather Observations for Tuesday, July 22, 2014

NOTE: This archive is for the closest National Weather Service station to Hopewell. Information may differ from the station used for current weather conditions.

Click here for Long-term Archive

Time Weather Temperature Dewpoint Humidity Pressure Winds Precip Visibility
23:53
Clear
72°F / 22°C 64°F / 18°C 78% 30.04 in
(1017 mb)
Calm - 10SM
22:53
Clear
73°F / 23°C 66°F / 19°C 78% 30.04 in
(1017 mb)
Calm - 10SM
21:53
Clear
77°F / 25°C 66°F / 19°C 69% 30.06 in
(1018 mb)
S 4.6 mph
(S 7 kph)
- 10SM
20:53
Clear
79°F / 26°C 66°F / 19°C 65% 30.06 in
(1018 mb)
S 4.6 mph
(S 7 kph)
- 10SM
19:53
Mostly Cloudy
79°F / 26°C 70°F / 21°C 74% 30.04 in
(1017 mb)
S 4.6 mph
(S 7 kph)
- 10SM
18:53
Partly Cloudy
82°F / 28°C 70°F / 21°C 66% 30.06 in
(1018 mb)
Calm - 10SM
17:53
Clear
84°F / 29°C 70°F / 21°C 62% 30.04 in
(1017 mb)
S 4.6 mph
(S 7 kph)
- 10SM
16:53
Clear
84°F / 29°C 68°F / 20°C 58% 30.04 in
(1017 mb)
Variable 3.5 mph
(Variable 6 kph)
- 10SM
15:53
Partly Cloudy
86°F / 30°C 66°F / 19°C 52% 30.06 in
(1018 mb)
Variable 4.6 mph
(Variable 7 kph)
- 10SM
14:53
Clear
86°F / 30°C 66°F / 19°C 52% 30.06 in
(1018 mb)
S 5.8 mph
(S 9 kph)
- 10SM
13:53
Mostly Cloudy
84°F / 29°C 70°F / 21°C 62% 30.09 in
(1019 mb)
Variable 4.6 mph
(Variable 7 kph)
- 10SM
12:53
Mostly Cloudy
84°F / 29°C 70°F / 21°C 62% 30.12 in
(1020 mb)
Variable 4.6 mph
(Variable 7 kph)
- 10SM
11:53
Mostly Cloudy
84°F / 29°C 68°F / 20°C 58% 30.12 in
(1020 mb)
Variable 5.8 mph
(Variable 9 kph)
- 10SM
10:53
Mostly Cloudy
82°F / 28°C 70°F / 21°C 66% 30.12 in
(1020 mb)
Calm - 10SM
09:53
Clear
82°F / 28°C 68°F / 20°C 62% 30.15 in
(1021 mb)
Variable 3.5 mph
(Variable 6 kph)
- 10SM
08:53
Clear
79°F / 26°C 68°F / 20°C 70% 30.15 in
(1021 mb)
Variable 5.8 mph
(Variable 9 kph)
- 10SM
07:53
Clear
73°F / 23°C 64°F / 18°C 74% 30.18 in
(1022 mb)
Calm - 10SM
06:53
Clear
70°F / 21°C 64°F / 18°C 83% 30.18 in
(1022 mb)
Calm - 10SM
05:53
Clear
Fog And Mist
64°F / 18°C 63°F / 17°C 94% 30.18 in
(1022 mb)
Calm - 6SM
05:06
Clear
Fog And Mist
63°F / 17°C 61°F / 16°C 94% 30.15 in
(1021 mb)
Calm - 5SM
04:53
Clear
Fog And Mist
63°F / 17°C 61°F / 16°C 94% 30.15 in
(1021 mb)
Calm - 2 1/2SM
03:53
Clear
63°F / 17°C 61°F / 16°C 94% 30.15 in
(1021 mb)
Calm - 9SM
02:53
Clear
Fog And Mist
64°F / 18°C 61°F / 16°C 88% 30.15 in
(1021 mb)
Calm - 6SM
02:37
Clear
Fog And Mist
64°F / 18°C 63°F / 17°C 94% 30.15 in
(1021 mb)
Calm - 3SM
02:33
Clear
Fog And Mist
64°F / 18°C 61°F / 16°C 88% 30.15 in
(1021 mb)
Calm - 1 1/4SM
02:29
Obscured
Fog And Mist
63°F / 17°C 61°F / 16°C 94% 30.15 in
(1021 mb)
Calm - 3/4SM
02:24
Partly Cloudy
Fog And Mist
64°F / 18°C 63°F / 17°C 94% 30.15 in
(1021 mb)
Calm - 1 1/2SM
01:53
Clear
64°F / 18°C 63°F / 17°C 94% 30.15 in
(1021 mb)
Calm - 8SM
00:53
Clear
Fog And Mist
64°F / 18°C 63°F / 17°C 94% 30.15 in
(1021 mb)
Calm - 5SM
Time Weather Temperature Dewpoint Humidity Pressure Winds Precip Visibility


Weather for websites

WeatherForYou.com, LLC is not responsible for any damages or problems caused by this service. Current weather conditions are obtained from the closest station including government and personal stations which may have varying degrees of accuracy. Weather forecasts are derived from the NOAA NDFD. Like all things, this site belongs to Jesus Christ... He just trusts me to maintain it. If you have any questions or comments email webmaster@weatherforyou.com

Copyright © 2014, WeatherForYou.com LLC. All rights reserved.